Location: Chemnitz
(49.5500°N, 11.5830°E)
Time: 14:50:27
(UTC+02:00)

ISS - Pass Details

Date: 22 March 2017
Orbit: 399 x 409 km, 51.6° (Epoch: 30 March)

Event Time Altitude Azimuth Distance (km) Brightness Sun altitude
Exits shadow 03:46:37 19° 126° (SE) 1,064 -1.5 -23.3°
Drops below altitude 10° 03:47:39 10° 123° (ESE) 1,473 -0.7 -23.1°
Sets 03:49:44 0° 120° (ESE) 2,332 0.4 -22.8°
